Voltar ao catálogo

SL-24 DEB

AtivoSSO
NORAD 28374·DEBRIS·🇷🇺 Russia

Lançado Jun 29, 2004 de Baikonur Cosmodrome

Loading…

Próximas Passagens (próximas 24 horas)

TLE

AtualizadoSource: Space-Track

Época: Sep 13, 2026, 22:55 UTC

1 28374U 04025J   26256.95503256  .00002852  00000-0  32948-3 0  9997
2 28374  98.2262 231.6166 0013587  37.8670  29.7489 14.86375323185325

Acompanhe SL-24 DEB em tempo real com AllMySat

Download on the App Store